Weather History for Pitt Meadows, BC

Change the Weather History Date:

Saturday, December 28, 2013

  Actual Average (CYXX) Record (CYXX)
Temperature  
Mean Temperature 42 °F -  
Max Temperature 46 °F 39 °F 51 °F (1997)
Min Temperature 37 °F 30 °F 10 °F (1996)
Degree Days  
Heating Degree Days 24    
Moisture  
Dew Point 39 °F    
Average Humidity 93    
Maximum Humidity 100    
Minimum Humidity 80    
Precipitation  
Precipitation 0.00 in - - ()
Sea Level Pressure  
Sea Level Pressure 30.48 in    
Wind  
Wind Speed 2 mph ()    
Max Wind Speed 4 mph    
Max Gust Speed -    
Averages and records for this station are not official NWS values.
T = Trace of Precipitation, MM = Missing Value Source: Averaged Metar Reports

Daily Weather History Graph

Daily Weather History Graph

Search for Another Location

Airport:

Trip Planner

Search our weather history database for the weather conditions in past years. The results will help you decide how hot, cold, wet, or windy it might be!

Date:

Astronomy

Dec. 28, 2013 Rise Set
Actual Time 8:05 AM PST 4:19 PM PST
Civil Twilight 7:28 AM PST 4:57 PM PST
Nautical Twilight 6:47 AM PST 5:37 PM PST
Astronomical Twilight 6:08 AM PST 6:16 PM PST
Moon 3:36 AM PST (12/28) 1:25 PM PST (12/28)
Length of Visible Light 9h 29m
Length of Day
8h 14m
Waning Crescent, 18% of the Moon is Illuminated
Dec 28
Waning Crescent
Jan 1
New
Jan 7
First Quarter
Jan 15
Full
Jan 23
Last Quarter

Hourly Weather History & Observations

Time (PST) Temp. Windchill Dew Point Humidity Pressure Visibility Wind Dir Wind Speed Gust Speed Precip Events Conditions
12:00 AM 39.2 °F 37.0 °F 38.1 °F 96% 30.35 in - West 3.5 mph - N/A   Unknown
1:00 AM 38.1 °F - 36.9 °F 95% 30.37 in - SW 2.3 mph - N/A   Unknown
2:00 AM 37.4 °F - 36.3 °F 96% 30.40 in - East 2.3 mph - N/A   Unknown
3:00 AM 38.7 °F - 37.4 °F 95% 30.42 in - SW 1.2 mph - N/A   Unknown
4:00 AM 39 °F - 38 °F 92% 30.43 in - NW 1.2 mph - -  
4:00 AM 38.7 °F - 37.6 °F 96% 30.43 in - NW 1.2 mph - N/A   Unknown
5:00 AM 38.7 °F - 37.6 °F 96% 30.45 in - WSW 2.3 mph - N/A   Unknown
6:00 AM 38.5 °F - 37.4 °F 96% 30.46 in - SSW 1.2 mph - N/A   Unknown
7:00 AM 37.6 °F - 34.7 °F 89% 30.47 in - East 1.2 mph - N/A   Unknown
8:00 AM 36.5 °F - 37.2 °F 100% 30.48 in - Calm Calm - N/A   Unknown
9:00 AM 39.2 °F - 38.1 °F 96% 30.50 in - Calm Calm - N/A   Unknown
10:00 AM 41 °F - 40 °F 96% 30.53 in - NNW 1.2 mph - -  
10:00 AM 41.4 °F - 40.3 °F 96% 30.53 in - NNW 1.2 mph - N/A   Unknown
11:00 AM 44.2 °F - 41.7 °F 91% 30.52 in - SSW 1.2 mph - N/A   Unknown
12:00 PM 45.0 °F - 41.2 °F 87% 30.53 in - SSE 2.3 mph - N/A   Unknown
1:00 PM 45.1 °F - 40.3 °F 83% 30.51 in - SSE 2.3 mph - N/A   Unknown
2:00 PM 45.3 °F - 40.3 °F 83% 30.51 in - ESE 1.2 mph - N/A   Unknown
3:00 PM 45.0 °F - 40.6 °F 85% 30.51 in - NNW 1.2 mph - N/A   Unknown
4:00 PM 44 °F - 40 °F 80% 30.51 in - NNE 2.3 mph - -  
4:00 PM 41.9 °F - 39.9 °F 93% 30.51 in - NNE 2.3 mph - N/A   Unknown
5:00 PM 42.3 °F - 39.4 °F 90% 30.52 in - Calm Calm - N/A   Unknown
6:00 PM 40.8 °F - 38.7 °F 92% 30.51 in - WSW 1.2 mph - N/A   Unknown
7:00 PM 39.9 °F - 38.1 °F 93% 30.51 in - WNW 1.2 mph - N/A   Unknown
8:00 PM 39.7 °F - 38.3 °F 95% 30.52 in - West 2.3 mph - N/A   Unknown
9:00 PM 39.7 °F - 38.3 °F 95% 30.52 in - WNW 1.2 mph - N/A   Unknown
10:00 PM 39 °F - 38 °F 93% 30.51 in - ESE 1.2 mph - -  
10:00 PM 39.2 °F - 37.8 °F 95% 30.51 in - ESE 1.2 mph - N/A   Unknown
11:00 PM 37.8 °F - 36.7 °F 96% 30.51 in - West 2.3 mph - N/A   Unknown